Карточка аэропорта USHH

Внимание!
Информация на этой странице в стадии наполнения.
Если вы не увидели какой-то информации, или заметили неточность - пожалуйста сообщите нам!
Спасибо!
Команда RU-STAFF
Название аэропортаХанты-Мансийск
Название аэропорта (англ.)Khanty-Mansiysk
Превышение141 ft. (43 m.)
Координаты61°1.7039999999999', 69°5.1599999999999'
Высота перехода3000ft
Эшелон переходаQNH>=1013hPa:FL040; QNH>=977hPa:FL050; QNH<=977hPa:FL060
Коды ответчика5150-5177
Зона ОрВДТюмень РПИ (USTV)
Данные METARUSHH 271300Z 26005G10MPS CAVOK 08/M07 Q1009 R24/010060 NOSIG
Проноз погоды (TAF)USHH 271047Z 2712/2812 26003G12MPS 9999 BKN030 TEMPO 2712/2724 23006G14MPS 5000 -SHRASN SCT003 BKN016CB BECMG 2800/2802 32007G17MPS TEMPO 2800/2806 2100 -SHSNRA BKN016CB
NOTAMshow/hide NOTAM
AWOS   TABLE

Информация о ВПП

ВПП Длина ВПП (м.) Покрытие Курс ВПП Частота ILS
062800Асфальтобетон58111.9
242800Асфальтобетон238110.1

Диспетчерские позиции

Позывной Наименование органа УВД Частота
USHH_TWRХантым-Вышка118.1
USHH_R_APPХантым-Круг120.4



Спутниковое изображение